Regional Weather Roundup
Issued by NWS

Home | Current Version | Previous Version | Text Only | Print | Product List | Glossary On
Versions: 1 2 3 4 5 6 7 8 9 10 11 12 13 14 15 16 17 18 19 20 21 22 23 24 25 26 27 28 29 30 31 32 33 34 35 36 37 38 39 40 41 42 43 44 45 46 47 48 49 50
000
ASUS43 KTOP 110608
RWRKS

WEATHER ROUNDUP FOR KANSAS
NATIONAL WEATHER SERVICE GOODLAND KS
1200 AM CST MON DEC 11 2017

NOTE:  "FAIR" INDICATES FEW OR NO CLOUDS BELOW 12,000 FEET WITH NO
SIGNIFICANT WEATHER AND/OR OBSTRUCTIONS TO VISIBILITY.

KSZ001>006-013>018-027>032-041>047-110700-
NORTHWEST KANSAS

CITY           SKY/WX    TMP DP  RH WIND       PRES   REMARKS
GOODLAND       CLEAR     31   2  29 W12       30.26F WCI  22
6HR MIN TEMP:  30; 6HR MAX TEMP:  40;

HAYS           CLEAR     39  10  30 W12       30.20S WCI  32
HILL CITY      CLEAR     37  10  32 W9        30.20F
6HR MIN TEMP:  36; 6HR MAX TEMP:  52;

RUSSELL        CLEAR     33  14  45 SW12      30.17S WCI  24
6HR MIN TEMP:  33; 6HR MAX TEMP:  52;

$$

KSZ061>065-074>080-084>089-110700-
SOUTHWEST KANSAS

CITY           SKY/WX    TMP DP  RH WIND       PRES   REMARKS
DODGE CITY     CLOUDY    43   7  22 W13       30.25S
6HR MIN TEMP:  41; 6HR MAX TEMP:  50;

ELKHART        CLOUDY    44  11  27 W12       30.30F
GARDEN CITY    CLOUDY    33   5  30 W13       30.26F WCI  24
6HR MIN TEMP:  31; 6HR MAX TEMP:  54;

GREAT BEND     CLEAR     38  11  32 W9        30.21S
LIBERAL        CLOUDY    30   8  39 W12       30.29F WCI  20
PRATT          CLEAR     40  10  28 W12       30.22F WCI  33
6HR MIN TEMP:  34; 6HR MAX TEMP:  52;

$$

KSZ066>073-081>083-090>101-110700-
SOUTHEAST KANSAS

CITY           SKY/WX    TMP DP  RH WIND       PRES   REMARKS
CHANUTE        CLEAR     35  22  58 SW3       30.17F
6HR MIN TEMP:  35; 6HR MAX TEMP:  50;

COFFEYVILLE    CLEAR     32  24  72 S3        30.19F
6HR MIN TEMP:  31; 6HR MAX TEMP:  56;

HUTCHINSON     CLEAR     37  16  42 NW6       30.19F
6HR MIN TEMP:  33; 6HR MAX TEMP:  55;

MEDICINE LODGE   N/A     39  14  36 NW6       30.22F
NEWTON         CLEAR     41  16  36 W8        30.19S
PARSONS        CLEAR     28  22  78 CALM      30.19F
6HR MIN TEMP:  28; 6HR MAX TEMP:  47;

WICHITA INTL   CLEAR     41  18  39 W9        30.19S
6HR MIN TEMP:  38; 6HR MAX TEMP:  51;

WICHITA JABRA  CLEAR     46  18  32 W12       30.19S
6HR MIN TEMP:  43; 6HR MAX TEMP:  57;

WICHITA MCCONL CLEAR     48  14  26 W6        30.19S
WINFIELD       CLEAR     39  19  44 CALM      30.22R
6HR MIN TEMP:  32; 6HR MAX TEMP:  54;

$$

KSZ007>012-019>026-033>040-048>060-102>105-110700-
NORTHEAST KANSAS

CITY           SKY/WX    TMP DP  RH WIND       PRES   REMARKS
CONCORDIA      CLEAR     42  15  33 W10       30.11F
6HR MIN TEMP:  42; 6HR MAX TEMP:  52;

EMPORIA        CLEAR     46  18  32 W9        30.14F
6HR MIN TEMP:  39; 6HR MAX TEMP:  52;

LAWRENCE       CLEAR     25  20  81 CALM      30.12F
6HR MIN TEMP:  25; 6HR MAX TEMP:  43;

MANHATTAN      CLEAR     39  17  41 SW8       30.12F
6HR MIN TEMP:  31; 6HR MAX TEMP:  55;

MARYSVILLE     CLOUDY    34  18  51 SW7       30.09S
OLATHE IND     CLEAR     36  23  59 S6        30.13F
6HR MIN TEMP:  33; 6HR MAX TEMP:  49;

OLATHE EXE     CLEAR     35  23  61 CALM      30.12F
6HR MIN TEMP:  35; 6HR MAX TEMP:  47;

SALINA         CLEAR     48  17  29 SW10      30.16S
6HR MIN TEMP:  40; 6HR MAX TEMP:  53;

TOPEKA BILLARD CLEAR     31  24  75 CALM      30.12F
6HR MIN TEMP:  28; 6HR MAX TEMP:  51;

TOPEKA FORBES  CLEAR     33  20  58 S3        30.11F
6HR MIN TEMP:  33; 6HR MAX TEMP:  46;

$$




USA.gov is the U.S. government's official web portal to all federal, state and local government web resources and services.